FW0807 Weather Reports


time (UTC)temp
F
wind
direction
speed
knots
gust
knots
rain 1hr
in
rain 24hr
in
rain mn
in
humidity
%
barometer
mb
20260505024540 68 178 0.9 5.2 0.00 0.00 0.00 68 1007.9
20260505023030 68 191 2.6 5.2 0.00 0.00 0.00 68 1007.7
20260505021536 68 175 1.7 4.3 0.00 0.00 0.00 68 1007.5
20260505020031 68 190 0.9 2.6 0.00 0.00 0.00 67 1007.3
20260505014536 69 176 0.9 5.2 0.00 0.00 0.00 66 1007.3
20260505013029 69 182 2.6 4.3 0.00 0.00 0.00 66 1006.9
20260505011527 70 180 0.9 5.2 0.00 0.00 0.00 65 1006.9
20260505010026 71 182 2.6 6.1 0.00 0.00 0.00 63 1006.6
20260505004526 72 161 2.6 7.0 0.00 0.00 0.00 62 1006.7
20260505003024 72 196 1.7 9.6 0.00 0.00 0.00 61 1006.6
20260505001524 73 193 3.5 11.3 0.00 0.00 0.00 60 1006.6
20260505000031 73 164 3.5 10.4 0.00 0.00 0.00 59 1006.6
20260504234523 74 233 3.5 7.8 0.00 0.00 0.00 59 1006.6
20260504233022 75 197 6.1 12.2 0.00 0.00 0.00 56 1006.8
20260504231526 76 190 5.2 12.2 0.00 0.00 0.00 56 1007.1
20260504230018 76 223 2.6 9.6 0.00 0.00 0.00 55 1007.2
20260504224522 77 180 4.3 12.2 0.00 0.00 0.00 53 1007.2
20260504223015 77 215 5.2 13.0 0.00 0.00 0.00 53 1007.1
20260504221513 77 187 4.3 7.8 0.00 0.00 0.00 54 1007.2
20260504220017 77 167 3.5 14.8 0.00 0.00 0.00 53 1007.4
20260504214512 78 232 4.3 14.8 0.00 0.00 0.00 52 1007.4
20260504213012 78 192 7.8 16.5 0.00 0.00 0.00 50 1007.5
20260504211513 78 177 4.3 16.5 0.00 0.00 0.00 53 1007.4
20260504210009 79 175 4.3 13.0 0.00 0.00 0.00 53 1007.5
20260504204508 78 211 7.0 14.8 0.00 0.00 0.00 50 1007.8
20260504203015 79 176 6.1 13.0 0.00 0.00 0.00 53 1007.9
20260504201502 78 229 7.0 12.2 0.00 0.00 0.00 50 1008.2
20260504200002 78 215 7.0 19.1 0.00 0.00 0.00 51 1008.3
20260504194610 78 207 5.2 14.8 0.00 0.00 0.00 52 1008.5
20260504193058 78 202 7.0 13.9 0.00 0.00 0.00 54 1008.6
20260504191556 78 259 6.1 12.2 0.00 0.00 0.00 54 1008.8
20260504190122 78 192 5.2 13.9 0.00 0.00 0.00 53 1008.7
20260504184557 78 209 6.1 15.6 0.00 0.00 0.00 52 1008.9
20260504183051 77 229 6.1 11.3 0.00 0.00 0.00 51 1009.1
20260504181553 78 180 5.2 12.2 0.00 0.00 0.00 54 1009.1
20260504180128 77 196 6.1 13.9 0.00 0.00 0.00 52 1009.2
20260504174548 77 234 7.8 13.0 0.00 0.00 0.00 52 1009.4
20260504173056 76 205 7.0 12.2 0.00 0.00 0.00 55 1009.8
20260504171539 76 229 7.0 14.8 0.00 0.00 0.00 53 1010.1
20260504081504 61 242 0.9 7.0 0.00 0.00 0.00 78 1011.8
20260504050105 63 180 1.7 4.3 0.00 0.00 0.00 71 1013.2
20260504044539 64 161 2.6 4.3 0.00 0.00 0.00 70 1013.4
20260504043038 64 196 0.9 5.2 0.00 0.00 0.00 70 1013.5
20260504041538 64 159 2.6 6.1 0.00 0.00 0.00 70 1013.6
20260504040138 64 186 1.7 5.2 0.00 0.00 0.00 70 1013.7
20260504034547 63 192 0.9 5.2 0.00 0.00 0.00 71 1013.9
20260504033036 64 192 2.6 5.2 0.00 0.00 0.00 70 1014.0
20260504031542 64 186 1.7 5.2 0.00 0.00 0.00 69 1013.9
20260504030040 64 224 0.9 4.3 0.00 0.00 0.00 69 1014.0